When you browse on this site, cookies collect data to enhance your experience and personalize the content and advertising you see.
Visit our Privacy Policy to learn more. By continuing to use the site, you agree to this use of cookies and data.
  • En España
  • Lista de países
  • Para 7 días
  • Temperatura del agua
  • El tiempo en el mapa
  • Informadores
  • user-avatar
    Iniciar sesión

    Tiempo cada hora Andora

    Hoy, 18 Agosto, Domingo

    Tiempo Temperatura Precipitaciones Viento Presión Humedad
    00:00 +16°C° 0 mm 1 mps 625 mmHg 86%
    01:00 +16°C° 0 mm 1 mps 625 mmHg 84%
    02:00 +15°C° 0 mm 1 mps 624 mmHg 82%
    03:00 +15°C° 0 mm 1 mps 624 mmHg 81%
    04:00 +15°C° 0 mm 1 mps 624 mmHg 77%
    05:00 +16°C° 0 mm 1 mps 624 mmHg 73%
    06:00 +16°C° 0 mm 1 mps 624 mmHg 69%
    07:00 +19°C° 0 mm 2 mps 625 mmHg 58%
    08:00 +23°C° 0 mm 2 mps 627 mmHg 46%
    09:00 +25°C° 0 mm 2 mps 628 mmHg 35%
    10:00 +26°C° 0 mm 3 mps 628 mmHg 33%
    11:00 +27°C° 0 mm 3 mps 628 mmHg 31%
    12:00 +28°C° 0 mm 4 mps 629 mmHg 29%
    13:00 +27°C° 0 mm 4 mps 628 mmHg 29%
    14:00 +27°C° 0 mm 4 mps 628 mmHg 30%
    15:00 +27°C° 0 mm 4 mps 628 mmHg 30%
    16:00 +25°C° 0.3 mm 3 mps 627 mmHg 41%
    17:00 +23°C° 0.3 mm 2 mps 627 mmHg 52%
    18:00 +20°C° 0.3 mm 2 mps 626 mmHg 63%
    19:00 +18°C° 0.6 mm 2 mps 626 mmHg 72%
    20:00 +17°C° 0.6 mm 2 mps 626 mmHg 81%
    21:00 +15°C° 0.6 mm 2 mps 626 mmHg 90%
    22:00 +15°C° 0.2 mm 2 mps 626 mmHg 91%
    23:00 +14°C° 0.2 mm 1 mps 626 mmHg 92%

    Mañana, 19 Agosto, Lunes

    Tiempo Temperatura Precipitaciones Viento Presión Humedad
    00:00 +14°C° 0.2 mm 1 mps 626 mmHg 92%
    01:00 +14°C° 0 mm 1 mps 626 mmHg 92%
    02:00 +13°C° 0 mm 1 mps 626 mmHg 92%
    03:00 +13°C° 0 mm 1 mps 626 mmHg 92%
    04:00 +13°C° 0 mm 1 mps 626 mmHg 91%
    05:00 +12°C° 0 mm 0 mps 626 mmHg 90%
    06:00 +12°C° 0 mm 0 mps 626 mmHg 89%
    07:00 +15°C° 0 mm 1 mps 627 mmHg 82%
    08:00 +18°C° 0 mm 1 mps 628 mmHg 75%
    09:00 +20°C° 0 mm 1 mps 629 mmHg 68%
    10:00 +20°C° 0.3 mm 2 mps 629 mmHg 64%
    11:00 +21°C° 0.3 mm 2 mps 629 mmHg 61%
    12:00 +22°C° 0.3 mm 3 mps 630 mmHg 57%
    13:00 +21°C° 0.8 mm 2 mps 629 mmHg 62%
    14:00 +20°C° 0.8 mm 2 mps 629 mmHg 66%
    15:00 +19°C° 0.8 mm 2 mps 628 mmHg 70%
    16:00 +19°C° 0.5 mm 2 mps 628 mmHg 74%
    17:00 +19°C° 0.5 mm 1 mps 627 mmHg 79%
    18:00 +18°C° 0.5 mm 1 mps 627 mmHg 83%
    19:00 +16°C° 0.7 mm 1 mps 627 mmHg 86%
    20:00 +15°C° 0.7 mm 1 mps 627 mmHg 88%
    21:00 +14°C° 0.7 mm 1 mps 627 mmHg 90%
    22:00 +14°C° 0.2 mm 1 mps 627 mmHg 90%
    23:00 +13°C° 0.2 mm 0 mps 627 mmHg 91%

    Pasado mañana, 20 Agosto, Martes

    Tiempo Temperatura Precipitaciones Viento Presión Humedad
    00:00 +13°C° 0.2 mm 0 mps 627 mmHg 91%
    01:00 +13°C° 0.1 mm 0 mps 627 mmHg 92%
    02:00 +12°C° 0.1 mm 0 mps 627 mmHg 93%
    03:00 +12°C° 0.1 mm 0 mps 627 mmHg 93%
    04:00 +12°C° 0.9 mm 0 mps 627 mmHg 94%
    05:00 +13°C° 0.9 mm 1 mps 627 mmHg 95%
    06:00 +13°C° 0.9 mm 1 mps 627 mmHg 96%
    07:00 +13°C° 2.2 mm 1 mps 628 mmHg 95%
    08:00 +13°C° 2.2 mm 1 mps 628 mmHg 94%
    09:00 +13°C° 2.2 mm 1 mps 628 mmHg 93%
    10:00 +12°C° 5.8 mm 1 mps 628 mmHg 94%
    11:00 +10°C° 5.8 mm 2 mps 628 mmHg 94%
    12:00 +10°C° 5.8 mm 2 mps 628 mmHg 95%
    13:00 +10°C° 2.4 mm 2 mps 628 mmHg 93%
    14:00 +10°C° 2.4 mm 2 mps 628 mmHg 91%
    15:00 +10°C° 2.4 mm 2 mps 628 mmHg 89%
    16:00 +10°C° 0 mm 2 mps 628 mmHg 87%
    17:00 +12°C° 0 mm 2 mps 628 mmHg 85%
    18:00 +12°C° 0 mm 2 mps 629 mmHg 83%
    19:00 +10°C° 0 mm 2 mps 628 mmHg 85%
    20:00 +9°C° 0 mm 2 mps 628 mmHg 87%
    21:00 +8°C° 0 mm 2 mps 628 mmHg 89%
    22:00 +7°C° 0 mm 2 mps 628 mmHg 88%
    23:00 +7°C° 0 mm 2 mps 628 mmHg 88%

    21 Agosto, Miércoles

    Tiempo Temperatura Precipitaciones Viento Presión Humedad
    00:00 +7°C° 0 mm 2 mps 627 mmHg 87%
    01:00 +7°C° 0 mm 2 mps 627 mmHg 85%
    02:00 +7°C° 0 mm 2 mps 627 mmHg 84%
    03:00 +7°C° 0 mm 2 mps 627 mmHg 82%
    04:00 +7°C° 0 mm 2 mps 627 mmHg 78%
    05:00 +8°C° 0 mm 1 mps 627 mmHg 73%
    06:00 +9°C° 0 mm 1 mps 627 mmHg 69%
    07:00 +12°C° 0 mm 1 mps 628 mmHg 60%
    08:00 +15°C° 0 mm 1 mps 630 mmHg 50%
    09:00 +19°C° 0 mm 1 mps 631 mmHg 41%
    10:00 +20°C° 0 mm 1 mps 631 mmHg 39%
    11:00 +21°C° 0 mm 1 mps 631 mmHg 38%
    12:00 +22°C° 0 mm 1 mps 631 mmHg 36%
    13:00 +21°C° 0 mm 1 mps 631 mmHg 38%
    14:00 +21°C° 0 mm 1 mps 630 mmHg 40%
    15:00 +20°C° 0 mm 2 mps 630 mmHg 42%
    16:00 +20°C° 0 mm 1 mps 629 mmHg 51%
    17:00 +18°C° 0 mm 1 mps 629 mmHg 60%
    18:00 +15°C° 0 mm 1 mps 628 mmHg 69%
    19:00 +14°C° 0 mm 1 mps 628 mmHg 74%
    20:00 +13°C° 0 mm 1 mps 628 mmHg 79%
    21:00 +12°C° 0 mm 1 mps 628 mmHg 84%
    22:00 +11°C° 0 mm 1 mps 628 mmHg 81%
    23:00 +11°C° 0 mm 1 mps 627 mmHg 79%

    22 Agosto, Jueves

    Tiempo Temperatura Precipitaciones Viento Presión Humedad
    00:00 +11°C° 0 mm 1 mps 627 mmHg 77%
    01:00 +10°C° 0 mm 1 mps 627 mmHg 73%
    02:00 +10°C° 0 mm 1 mps 627 mmHg 69%
    03:00 +9°C° 0 mm 2 mps 627 mmHg 65%
    04:00 +9°C° 0 mm 2 mps 627 mmHg 60%
    05:00 +9°C° 0 mm 2 mps 627 mmHg 56%
    06:00 +9°C° 0 mm 2 mps 627 mmHg 52%
    07:00 +13°C° 0 mm 1 mps 629 mmHg 45%
    08:00 +16°C° 0 mm 1 mps 630 mmHg 38%
    09:00 +20°C° 0 mm 1 mps 631 mmHg 30%
    10:00 +22°C° 0 mm 1 mps 631 mmHg 29%
    11:00 +23°C° 0 mm 1 mps 631 mmHg 27%
    12:00 +24°C° 0 mm 1 mps 632 mmHg 26%
    13:00 +24°C° 0 mm 1 mps 631 mmHg 28%
    14:00 +24°C° 0 mm 2 mps 631 mmHg 30%
    15:00 +23°C° 0 mm 2 mps 631 mmHg 32%
    16:00 +22°C° 0 mm 1 mps 630 mmHg 42%
    17:00 +20°C° 0 mm 1 mps 629 mmHg 52%
    18:00 +16°C° 0 mm 0 mps 628 mmHg 62%
    19:00 +16°C° 0 mm 1 mps 628 mmHg 66%
    20:00 +14°C° 0 mm 1 mps 628 mmHg 69%
    21:00 +13°C° 0 mm 1 mps 628 mmHg 73%
    22:00 +13°C° 0 mm 1 mps 627 mmHg 74%
    23:00 +12°C° 0 mm 1 mps 627 mmHg 74%

    23 Agosto, Viernes

    Tiempo Temperatura Precipitaciones Viento Presión Humedad
    00:00 +12°C° 0 mm 1 mps 627 mmHg 75%
    01:00 +12°C° 0 mm 1 mps 627 mmHg 76%
    02:00 +12°C° 0 mm 1 mps 627 mmHg 77%
    03:00 +12°C° 0 mm 1 mps 626 mmHg 79%
    04:00 +12°C° 0 mm 1 mps 626 mmHg 79%
    05:00 +12°C° 0 mm 1 mps 627 mmHg 78%
    06:00 +12°C° 0 mm 1 mps 627 mmHg 78%
    07:00 +15°C° 0 mm 1 mps 628 mmHg 68%
    08:00 +19°C° 0 mm 1 mps 629 mmHg 57%
    09:00 +22°C° 0 mm 1 mps 630 mmHg 46%
    10:00 +23°C° 0 mm 1 mps 630 mmHg 42%
    11:00 +24°C° 0 mm 1 mps 630 mmHg 38%
    12:00 +25°C° 0 mm 2 mps 630 mmHg 34%
    13:00 +25°C° 0 mm 2 mps 630 mmHg 35%
    14:00 +25°C° 0 mm 2 mps 629 mmHg 36%
    15:00 +24°C° 0 mm 2 mps 629 mmHg 37%
    16:00 +23°C° 0 mm 1 mps 628 mmHg 44%
    17:00 +21°C° 0 mm 1 mps 628 mmHg 51%
    18:00 +18°C° 0 mm 0 mps 627 mmHg 58%
    19:00 +18°C° 0 mm 1 mps 627 mmHg 62%
    20:00 +16°C° 0 mm 1 mps 627 mmHg 66%
    21:00 +14°C° 0 mm 1 mps 626 mmHg 70%
    22:00 +14°C° 0 mm 1 mps 626 mmHg 70%
    23:00 +14°C° 0 mm 1 mps 626 mmHg 71%
    Mostrar más